Wind_Speed
58 58 57 57 56 55 53 52 51 50 49 48 47 47 47 47 47 46 46 45 44 44 44 44 44 44 44 43 43 44 44 44 44 44 43 43 43 43
59 59 58 57 56 56 55 54 53 52 51 50 49 48 48 48 47 47 46 46 46 45 45 45 45 45 45 45 45 45 45 45 46 45 44 44 43 44
58 59 58 58 57 56 55 54 53 53 52 51 50 50 49 48 48 48 48 47 47 47 47 47 47 47 47 47 47 47 47 47 46 46 45 45 46 45
58 58 58 58 58 57 56 55 54 53 52 52 50 49 50 49 49 49 49 49 48 49 49 49 49 48 49 49 49 48 48 48 48 48 47 47 47 47
57 57 57 58 58 58 57 57 56 54 53 52 51 50 50 49 49 49 50 49 49 50 50 50 50 50 50 50 49 49 49 49 49 49 49 49 48 48
55 56 56 56 57 57 57 57 56 56 55 54 53 52 51 51 50 50 50 50 50 50 50 50 50 50 49 50 50 50 50 50 50 49 49 50 49 48
54 54 55 55 56 56 56 56 57 57 57 56 55 54 53 52 52 51 51 51 51 50 50 50 50 50 50 50 50 51 51 51 50 50 50 50 49 49
51 52 52 53 55 56 56 56 56 56 56 56 56 55 55 53 53 52 52 51 51 51 51 51 51 51 51 51 51 51 51 50 50 50 50 50 50 50
49 50 50 50 52 54 54 55 55 55 55 55 55 54 54 54 54 53 53 52 52 51 52 51 51 51 50 50 50 50 50 50 50 50 50 50 50 50
46 48 49 49 48 49 49 50 51 52 53 53 53 53 53 52 52 52 52 52 52 52 52 51 50 50 51 50 50 50 50 50 50 50 50 51 51 52
44 45 46 47 47 47 47 47 48 49 50 51 51 51 51 51 50 51 51 50 50 50 50 50 50 50 51 51 51 51 50 50 51 51 52 52 52 52
41 43 44 45 46 47 47 48 48 48 49 49 50 50 50 50 50 50 51 50 49 49 49 49 49 49 49 49 50 51 51 51 52 52 52 52 52 51
39 40 42 43 44 46 47 46 46 46 47 47 48 48 49 49 49 49 49 50 49 48 48 48 48 49 48 48 50 51 51 51 51 51 51 50 50 49
36 38 40 42 42 43 43 43 44 44 44 45 46 46 47 47 47 47 47 48 48 47 47 47 47 48 48 49 49 49 49 49 49 49 48 48 48 48
35 36 38 39 40 42 41 42 43 43 43 43 44 44 45 46 46 46 46 47 47 47 47 47 47 47 47 47 47 46 46 46 46 46 46 46 47 47
34 34 36 38 39 40 41 41 42 43 43 43 43 43 44 45 45 45 46 46 46 46 46 46 46 46 45 45 45 45 45 45 45 45 46 46 46 47
33 33 34 35 37 39 41 41 41 42 42 43 43 43 44 44 44 44 45 45 45 44 43 44 44 44 44 44 44 45 45 44 44 44 45 45 46 47
32 32 32 33 35 37 38 38 39 40 40 41 41 42 42 42 43 43 44 43 43 42 43 43 44 44 44 44 45 45 44 44 45 45 45 46 46 47
32 32 32 32 34 35 36 37 37 38 38 39 39 39 40 41 41 41 41 41 42 43 43 44 44 44 44 44 44 44 44 45 45 45 45 45 45 45
31 32 32 32 33 34 34 35 36 37 37 38 38 39 39 39 38 38 39 40 41 41 42 42 42 42 42 43 43 44 44 45 45 45 45 45 45 45
31 31 31 32 32 33 34 35 36 37 37 37 37 37 37 37 37 37 38 39 40 40 40 41 41 41 41 42 43 43 44 45 45 46 46 45 45 45
30 30 30 31 32 32 32 33 34 35 36 36 36 36 35 36 36 37 37 38 39 39 39 39 40 41 41 42 43 43 44 44 45 45 45 46 45 45
29 29 30 30 30 31 31 31 32 33 33 34 34 34 35 35 36 36 37 37 38 39 39 39 40 41 41 42 42 43 43 43 43 44 44 45 44 44
Wind_Direction
247 247 247 246 246 247 248 248 249 249 249 250 252 253 254 255 256 257 259 260 261 262 264 266 267 268 269 270 271 272 273 274 275 277 279 278 278 278
247 247 246 245 246 247 247 248 249 249 249 250 251 252 253 255 256 257 258 259 261 262 264 265 267 268 269 270 271 272 273 274 275 276 278 278 278 279
247 246 246 246 246 247 247 248 248 249 250 250 251 252 253 253 254 256 258 260 261 262 264 265 266 268 269 270 271 272 273 274 275 276 277 277 278 279
246 246 246 246 246 246 247 247 248 249 251 251 252 252 253 254 255 257 258 260 261 263 264 265 266 268 269 269 270 272 273 274 275 276 277 277 277 277
246 246 246 246 246 247 247 247 247 249 250 252 252 253 254 255 256 257 259 261 262 264 265 266 267 269 269 269 270 271 273 275 275 276 277 278 277 276
245 245 245 246 246 246 247 248 248 250 251 251 252 253 255 256 257 259 261 262 264 265 266 266 268 269 269 270 271 272 273 274 275 276 276 276 276 276
246 245 245 246 246 247 248 249 250 250 251 251 252 253 254 256 257 260 262 263 264 265 266 267 268 269 270 271 272 273 273 274 274 274 275 275 275 275
246 245 246 246 246 247 249 250 250 251 251 252 252 254 255 257 258 259 261 263 264 265 266 267 268 269 270 270 271 272 273 273 274 273 274 274 275 275
246 245 245 246 247 248 249 249 250 250 252 253 253 254 256 257 258 259 261 262 263 264 265 266 267 269 270 270 271 271 271 272 273 274 274 274 275 275
245 244 244 245 247 247 248 248 249 250 251 252 253 253 255 256 258 260 261 262 262 263 265 266 267 268 269 270 270 270 271 272 273 274 274 274 275 276
244 244 244 245 244 246 248 249 249 250 250 251 251 253 255 256 258 260 261 262 262 263 265 267 267 268 269 270 270 271 271 272 272 273 274 274 275 276
244 244 245 245 244 245 247 249 250 250 250 250 252 254 255 257 258 260 260 262 263 264 266 267 268 269 269 270 270 271 271 272 273 273 274 275 275 275
246 244 244 243 243 245 246 247 248 249 249 251 253 254 256 257 259 260 261 263 264 265 266 268 269 270 270 271 271 271 271 272 272 272 273 274 274 275
245 243 243 242 243 244 245 246 247 249 250 252 253 254 255 257 259 260 262 264 264 265 266 268 269 270 271 271 271 271 271 272 272 272 273 273 275 276
245 244 245 245 245 245 247 248 248 249 251 252 253 254 255 258 259 260 261 263 265 267 268 268 269 270 271 271 270 270 271 272 273 274 274 274 275 276
247 245 246 247 247 247 248 249 250 250 252 253 254 255 257 258 259 260 261 263 265 267 268 268 269 269 270 270 270 270 271 272 273 274 275 276 276 278
248 247 246 247 247 248 249 250 250 252 253 253 254 255 256 257 259 260 262 263 265 266 266 267 268 269 269 270 270 271 271 273 274 275 276 276 277 279
249 247 247 247 248 249 249 250 251 252 253 253 254 254 255 257 259 260 261 262 263 264 265 266 268 269 269 270 271 272 272 273 274 275 276 277 278 279
247 246 247 248 250 250 251 250 251 252 253 253 254 255 256 258 259 260 261 261 262 263 265 266 267 268 269 270 271 272 273 274 275 276 277 278 279 279
247 247 249 250 250 251 251 252 252 252 253 254 255 256 258 259 260 261 262 262 262 264 265 267 268 269 270 271 272 274 274 275 276 277 278 278 279 279
246 247 248 249 250 252 253 254 254 254 255 256 257 257 258 259 260 262 263 264 264 265 266 268 269 270 271 272 273 274 275 276 277 278 278 278 278 279
249 249 249 249 250 252 254 254 255 256 256 257 257 258 258 259 261 262 263 265 266 267 268 269 271 271 272 273 274 276 277 278 278 278 278 278 278 278
251 251 251 252 252 253 254 254 256 257 257 256 256 258 259 261 262 263 264 265 266 268 270 271 272 273 274 275 276 277 277 278 277 277 278 278 278 279
Height
5658 5662 5667 5671 5675 5678 5682 5685 5689 5692 5696 5698 5700 5702 5705 5707 5709 5711 5713 5714 5715 5717 5718 5718 5718 5719 5719 5719 5718 5718 5717 5716 5715 5714 5713 5711 5709 5707
5643 5647 5652 5656 5660 5665 5669 5672 5676 5679 5683 5686 5688 5690 5693 5695 5697 5699 5701 5703 5704 5705 5706 5707 5707 5707 5707 5707 5707 5706 5706 5705 5704 5703 5701 5700 5698 5696
5627 5632 5637 5641 5646 5650 5654 5658 5662 5666 5669 5673 5676 5678 5680 5683 5685 5687 5689 5691 5692 5693 5694 5695 5695 5695 5696 5695 5695 5694 5694 5693 5692 5690 5689 5688 5686 5685
5612 5617 5622 5626 5631 5635 5640 5644 5648 5652 5656 5660 5662 5665 5668 5670 5672 5674 5676 5678 5680 5681 5681 5682 5682 5683 5683 5683 5682 5682 5681 5680 5679 5678 5676 5675 5674 5672
5598 5602 5607 5611 5616 5621 5625 5630 5634 5638 5642 5646 5649 5652 5654 5657 5659 5661 5663 5665 5667 5667 5668 5669 5669 5669 5669 5669 5669 5669 5668 5667 5666 5665 5663 5662 5660 5659
5583 5587 5592 5596 5601 5606 5610 5615 5619 5624 5628 5632 5635 5638 5641 5643 5646 5648 5650 5652 5653 5654 5654 5655 5656 5656 5656 5656 5656 5656 5655 5653 5652 5651 5650 5648 5647 5645
5568 5573 5578 5582 5587 5592 5596 5600 5605 5609 5613 5617 5621 5625 5627 5630 5633 5635 5637 5638 5639 5640 5641 5642 5643 5643 5642 5642 5642 5641 5640 5639 5638 5637 5636 5635 5633 5632
5554 5559 5564 5568 5573 5577 5581 5586 5590 5594 5598 5602 5607 5610 5614 5616 5619 5620 5622 5624 5626 5628 5627 5628 5628 5628 5628 5628 5627 5626 5626 5625 5624 5623 5622 5621 5620 5618
5541 5546 5550 5554 5558 5563 5567 5571 5575 5579 5584 5588 5592 5596 5599 5603 5605 5607 5608 5609 5612 5612 5613 5613 5613 5613 5613 5613 5612 5612 5611 5611 5610 5609 5608 5607 5606 5605
5529 5533 5538 5542 5546 5550 5553 5557 5561 5565 5570 5574 5578 5582 5584 5587 5589 5591 5593 5594 5596 5597 5597 5599 5599 5599 5599 5599 5598 5597 5597 5596 5596 5595 5594 5593 5592 5590
5517 5521 5525 5529 5534 5537 5541 5544 5548 5552 5556 5560 5564 5567 5570 5572 5574 5576 5578 5580 5582 5583 5583 5584 5585 5585 5585 5585 5584 5583 5582 5582 5581 5580 5579 5578 5577 5575
5507 5510 5514 5517 5521 5524 5528 5532 5536 5540 5543 5547 5550 5553 5556 5558 5560 5562 5564 5566 5567 5569 5570 5570 5570 5570 5571 5571 5569 5568 5568 5567 5566 5565 5564 5563 5561 5560
5496 5499 5502 5505 5509 5513 5517 5520 5524 5527 5530 5533 5536 5540 5542 5545 5547 5549 5550 5552 5554 5555 5556 5556 5556 5556 5556 5557 5556 5554 5553 5552 5551 5550 5549 5548 5546 5545
5486 5488 5491 5495 5498 5502 5505 5508 5512 5515 5518 5521 5524 5527 5529 5532 5534 5535 5537 5538 5540 5541 5541 5541 5542 5542 5542 5542 5541 5540 5538 5537 5536 5536 5535 5534 5532 5531
5476 5479 5482 5485 5488 5491 5494 5497 5500 5503 5506 5509 5512 5514 5517 5519 5521 5522 5524 5525 5526 5526 5527 5527 5527 5527 5527 5527 5527 5526 5525 5524 5523 5522 5521 5520 5518 5517
5467 5470 5472 5475 5478 5480 5483 5486 5489 5491 5494 5497 5499 5502 5504 5506 5508 5509 5511 5512 5513 5513 5513 5513 5513 5513 5513 5513 5513 5512 5512 5511 5510 5509 5507 5506 5504 5503
5458 5461 5463 5465 5467 5469 5472 5475 5477 5479 5482 5484 5487 5489 5492 5493 5495 5496 5497 5498 5499 5500 5500 5500 5500 5500 5500 5500 5499 5499 5499 5498 5497 5495 5494 5493 5491 5489
5449 5451 5453 5455 5457 5459 5461 5464 5466 5468 5470 5472 5475 5477 5479 5481 5482 5483 5484 5486 5487 5487 5488 5488 5487 5487 5487 5487 5487 5486 5486 5485 5484 5482 5481 5480 5478 5476
5441 5443 5444 5446 5448 5449 5451 5453 5455 5457 5459 5461 5463 5465 5467 5468 5470 5471 5472 5473 5474 5475 5475 5475 5475 5475 5475 5475 5474 5473 5473 5472 5471 5469 5468 5466 5465 5463
5432 5434 5435 5437 5438 5440 5441 5443 5445 5447 5448 5450 5452 5453 5455 5456 5458 5459 5460 5461 5462 5462 5463 5463 5462 5462 5462 5462 5462 5461 5459 5458 5457 5456 5454 5452 5451 5449
5423 5425 5426 5428 5429 5430 5432 5433 5434 5436 5438 5439 5441 5442 5444 5445 5446 5447 5448 5449 5450 5450 5450 5450 5450 5449 5449 5449 5448 5448 5446 5444 5443 5441 5440 5439 5438 5436
5414 5416 5417 5419 5420 5421 5422 5423 5424 5425 5427 5428 5430 5431 5433 5434 5435 5436 5437 5438 5438 5438 5438 5438 5437 5437 5436 5436 5435 5434 5433 5431 5429 5427 5425 5424 5423 5422
5405 5407 5408 5409 5410 5411 5412 5413 5414 5415 5416 5417 5419 5420 5422 5423 5424 5425 5426 5426 5426 5426 5426 5426 5425 5424 5423 5423 5422 5421 5419 5417 5416 5414 5413 5410 5409 5408